Time,TemperatureF,DewpointF,PressureIn,WindDirection,WindDirectionDegrees,WindSpeedMPH,WindSpeedGustMPH,Humidity,HourlyPrecipIn,Conditions,Clouds,dailyrainin,SoftwareType,DateUTC
2013-01-20 00:00:00,47.1,28.9,28.79,South,180,15.0,15.0,49,0.00,RA,SKC,0.00,WeatherDisplay:10.37,2013-01-20 05:00:00,
2013-01-20 00:01:00,47.1,28.9,28.79,South,180,15.0,15.0,49,0.00,RA,SKC,0.00,WeatherDisplay:10.37,2013-01-20 05:01:00,
2013-01-20 00:03:00,47.1,28.9,28.78,South,180,8.1,8.1,49,0.00,RA,SKC,0.00,WeatherDisplay:10.37,2013-01-20 05:03:00,
2013-01-20 00:08:00,47.1,29.4,28.78,North,8,8.1,8.1,50,0.00,RA,SKC,0.00,WeatherDisplay:10.37,2013-01-20 05:08:00,
2013-01-20 00:13:00,47.1,29.4,28.78,South,180,16.1,16.1,50,0.00,CLR,SKC,0.00,WeatherDisplay:10.37,2013-01-20 05:13:00,
2013-01-20 00:18:00,46.9,29.2,28.78,South,180,12.7,12.7,50,0.00,CLR,SKC,0.00,WeatherDisplay:10.37,2013-01-20 05:18:00,
2013-01-20 00:23:00,46.8,29.6,28.78,NE,45,20.7,20.7,51,0.00,CLR,SKC,0.00,WeatherDisplay:10.37,2013-01-20 05:23:00,
2013-01-20 00:28:00,46.6,29.4,28.78,South,180,10.4,10.4,51,0.00,CLR,SKC,0.00,WeatherDisplay:10.37,2013-01-20 05:28:00,
2013-01-20 00:33:00,46.4,29.7,28.78,NW,315,17.3,17.3,52,0.00,CLR,SKC,0.00,WeatherDisplay:10.37,2013-01-20 05:33:00,
2013-01-20 00:38:00,46.4,29.7,28.77,East,90,13.8,13.8,52,0.00,CLR,SKC,0.00,WeatherDisplay:10.37,2013-01-20 05:38:00,
2013-01-20 00:43:00,46.4,29.7,28.78,West,270,11.5,11.5,52,0.00,CLR,SKC,0.00,WeatherDisplay:10.37,2013-01-20 05:43:00,
2013-01-20 00:48:00,46.2,29.5,28.77,NW,315,17.3,17.3,52,0.00,CLR,SKC,0.00,WeatherDisplay:10.37,2013-01-20 05:48:00,
2013-01-20 00:53:00,46.0,29.8,28.77,East,90,12.7,12.7,53,0.00,CLR,SKC,0.00,WeatherDisplay:10.37,2013-01-20 05:53:00,
2013-01-20 00:58:00,46.0,29.8,28.77,West,270,9.2,9.2,53,0.00,CLR,SKC,0.00,WeatherDisplay:10.37,2013-01-20 05:58:00,
2013-01-20 01:03:00,46.0,29.8,28.77,South,180,20.7,20.7,53,0.00,CLR,SKC,0.00,WeatherDisplay:10.37,2013-01-20 06:03:00,
2013-01-20 01:08:00,45.9,30.1,28.77,South,180,20.7,20.7,54,0.00,CLR,SKC,0.00,WeatherDisplay:10.37,2013-01-20 06:08:00,
2013-01-20 01:13:00,45.9,30.1,28.77,South,180,12.7,12.7,54,0.00,CLR,SKC,0.00,WeatherDisplay:10.37,2013-01-20 06:13:00,
2013-01-20 01:18:00,45.7,30.4,28.77,East,90,15.0,15.0,55,0.00,CLR,SKC,0.00,WeatherDisplay:10.37,2013-01-20 06:18:00,
2013-01-20 01:23:00,45.5,29.8,28.77,South,180,11.5,11.5,54,0.00,CLR,SKC,0.00,WeatherDisplay:10.37,2013-01-20 06:23:00,
2013-01-20 01:28:00,45.3,30.1,28.77,NW,315,10.4,10.4,55,0.00,CLR,SKC,0.00,WeatherDisplay:10.37,2013-01-20 06:28:00,
2013-01-20 01:33:00,45.1,30.4,28.77,NE,45,11.5,11.5,56,0.00,CLR,SKC,0.00,WeatherDisplay:10.37,2013-01-20 06:33:00,
2013-01-20 01:39:00,45.1,30.4,28.77,South,180,12.7,12.7,56,0.00,CLR,SKC,0.00,WeatherDisplay:10.37,2013-01-20 06:39:00,
2013-01-20 01:44:00,45.1,30.4,28.77,South,180,11.5,11.5,56,0.00,CLR,SKC,0.00,WeatherDisplay:10.37,2013-01-20 06:44:00,
2013-01-20 01:49:00,45.1,30.4,28.77,South,180,10.4,10.4,56,0.00,CLR,SKC,0.00,WeatherDisplay:10.37,2013-01-20 06:49:00,
2013-01-20 01:54:00,45.1,30.4,28.77,South,180,15.0,15.0,56,0.00,CLR,SKC,0.00,WeatherDisplay:10.37,2013-01-20 06:54:00,
2013-01-20 01:59:00,45.3,31.0,28.77,North,8,15.0,15.0,57,0.00,CLR,SKC,0.00,WeatherDisplay:10.37,2013-01-20 06:59:00,
2013-01-20 02:04:00,45.3,31.0,28.76,South,180,10.4,10.4,57,0.00,CLR,SKC,0.00,WeatherDisplay:10.37,2013-01-20 07:04:00,
2013-01-20 02:09:00,45.5,31.1,28.76,NW,315,12.7,12.7,57,0.00,CLR,SKC,0.00,WeatherDisplay:10.37,2013-01-20 07:09:00,
2013-01-20 02:14:00,45.5,31.1,28.76,NE,45,16.1,16.1,57,0.00,CLR,SKC,0.00,WeatherDisplay:10.37,2013-01-20 07:14:00,
2013-01-20 02:18:00,45.5,31.1,28.76,South,180,12.7,12.7,57,0.00,CLR,SKC,0.00,WeatherDisplay:10.37,2013-01-20 07:18:00,
2013-01-20 02:24:00,45.5,31.1,28.76,WNW,292,16.1,16.1,57,0.00,CLR,SKC,0.00,WeatherDisplay:10.37,2013-01-20 07:24:00,
2013-01-20 02:28:00,45.5,31.1,28.76,SE,135,11.5,11.5,57,0.00,CLR,SKC,0.00,WeatherDisplay:10.37,2013-01-20 07:28:00,
2013-01-20 02:33:00,45.5,31.6,28.76,South,180,18.4,18.4,58,0.00,CLR,SKC,0.00,WeatherDisplay:10.37,2013-01-20 07:33:00,
2013-01-20 02:38:00,45.5,31.6,28.76,North,0,12.7,12.7,58,0.00,CLR,SKC,0.00,WeatherDisplay:10.37,2013-01-20 07:38:00,
2013-01-20 02:43:00,45.3,31.4,28.76,NE,45,17.3,17.3,58,0.00,CLR,SKC,0.00,WeatherDisplay:10.37,2013-01-20 07:43:00,
2013-01-20 02:48:00,45.3,31.4,28.76,SE,135,11.5,11.5,58,0.00,CLR,SKC,0.00,WeatherDisplay:10.37,2013-01-20 07:48:00,
2013-01-20 02:53:00,45.1,31.7,28.76,NW,315,11.5,11.5,59,0.00,CLR,SKC,0.00,WeatherDisplay:10.37,2013-01-20 07:53:00,
2013-01-20 02:58:00,45.1,32.1,28.76,NE,45,12.7,12.7,60,0.00,CLR,SKC,0.00,WeatherDisplay:10.37,2013-01-20 07:58:00,
2013-01-20 03:03:00,45.1,32.1,28.75,WNW,292,10.4,10.4,60,0.00,CLR,SKC,0.00,WeatherDisplay:10.37,2013-01-20 08:03:00,
2013-01-20 03:08:00,45.0,31.9,28.75,East,90,10.4,10.4,60,0.00,CLR,SKC,0.00,WeatherDisplay:10.37,2013-01-20 08:08:00,
2013-01-20 03:13:00,45.0,32.3,28.76,South,180,15.0,15.0,61,0.00,CLR,SKC,0.00,WeatherDisplay:10.37,2013-01-20 08:13:00,
2013-01-20 03:18:00,44.8,32.1,28.75,WSW,248,16.1,16.1,61,0.00,CLR,SKC,0.00,WeatherDisplay:10.37,2013-01-20 08:18:00,
2013-01-20 03:23:00,44.6,32.4,28.75,South,180,12.7,12.7,62,0.00,CLR,SKC,0.00,WeatherDisplay:10.37,2013-01-20 08:23:00,
2013-01-20 03:28:00,44.6,32.4,28.75,SSE,158,10.4,10.4,62,0.00,CLR,SKC,0.00,WeatherDisplay:10.37,2013-01-20 08:28:00,
2013-01-20 03:33:00,44.4,32.2,28.75,South,180,19.6,19.6,62,0.00,CLR,SKC,0.00,WeatherDisplay:10.37,2013-01-20 08:33:00,
2013-01-20 03:38:00,44.2,32.4,28.75,South,180,9.2,9.2,63,0.00,CLR,SKC,0.00,WeatherDisplay:10.37,2013-01-20 08:38:00,
2013-01-20 03:43:00,44.2,32.4,28.75,West,270,12.7,12.7,63,0.00,CLR,SKC,0.00,WeatherDisplay:10.37,2013-01-20 08:43:00,
2013-01-20 03:48:00,44.2,32.4,28.75,South,180,19.6,19.6,63,0.00,CLR,SKC,0.00,WeatherDisplay:10.37,2013-01-20 08:48:00,
2013-01-20 03:53:00,44.2,32.8,28.75,South,180,6.9,6.9,64,0.00,CLR,SKC,0.00,WeatherDisplay:10.37,2013-01-20 08:53:00,
2013-01-20 03:58:00,44.1,32.7,28.75,West,270,13.8,13.8,64,0.00,CLR,SKC,0.00,WeatherDisplay:10.37,2013-01-20 08:58:00,
2013-01-20 04:03:00,44.1,32.7,28.75,South,180,8.1,8.1,64,0.00,CLR,SKC,0.00,WeatherDisplay:10.37,2013-01-20 09:03:00,
2013-01-20 04:08:00,43.9,32.9,28.75,SE,135,8.1,8.1,65,0.00,CLR,SKC,0.00,WeatherDisplay:10.37,2013-01-20 09:08:00,
2013-01-20 04:13:00,43.7,32.7,28.75,SE,135,10.4,10.4,65,0.00,CLR,SKC,0.00,WeatherDisplay:10.37,2013-01-20 09:13:00,
2013-01-20 04:18:00,43.9,32.9,28.75,SE,135,13.8,13.8,65,0.00,CLR,SKC,0.00,WeatherDisplay:10.37,2013-01-20 09:18:00,
2013-01-20 04:23:00,43.9,32.9,28.75,South,180,10.4,10.4,65,0.00,CLR,SKC,0.00,WeatherDisplay:10.37,2013-01-20 09:23:00,
2013-01-20 04:28:00,43.9,32.9,28.74,NNE,12,19.6,19.6,65,0.00,CLR,SKC,0.00,WeatherDisplay:10.37,2013-01-20 09:28:00,
2013-01-20 04:33:00,44.1,33.0,28.74,South,180,8.1,8.1,65,0.00,CLR,SKC,0.00,WeatherDisplay:10.37,2013-01-20 09:33:00,
2013-01-20 04:38:00,43.9,33.3,28.75,South,180,10.4,10.4,66,0.00,CLR,SKC,0.00,WeatherDisplay:10.37,2013-01-20 09:38:00,
2013-01-20 04:43:00,43.9,33.3,28.75,NW,315,9.2,9.2,66,0.00,CLR,SKC,0.00,WeatherDisplay:10.37,2013-01-20 09:43:00,
2013-01-20 04:48:00,43.9,33.3,28.74,South,180,12.7,12.7,66,0.00,CLR,SKC,0.00,WeatherDisplay:10.37,2013-01-20 09:48:00,
2013-01-20 04:53:00,43.7,33.5,28.74,West,270,10.4,10.4,67,0.00,CLR,SKC,0.00,WeatherDisplay:10.37,2013-01-20 09:53:00,
2013-01-20 04:58:00,43.7,33.5,28.75,South,180,13.8,13.8,67,0.00,CLR,SKC,0.00,WeatherDisplay:10.37,2013-01-20 09:58:00,
2013-01-20 05:03:00,43.7,33.5,28.75,NE,45,8.1,8.1,67,0.00,CLR,SKC,0.00,WeatherDisplay:10.37,2013-01-20 10:03:00,
2013-01-20 05:08:00,43.5,33.7,28.75,NE,45,8.1,8.1,68,0.00,CLR,SKC,0.00,WeatherDisplay:10.37,2013-01-20 10:08:00,
2013-01-20 05:13:00,43.7,33.5,28.75,ESE,112,17.3,17.3,67,0.00,CLR,SKC,0.00,WeatherDisplay:10.37,2013-01-20 10:13:00,
2013-01-20 05:18:00,43.9,34.0,28.75,South,180,12.7,12.7,68,0.00,CLR,SKC,0.00,WeatherDisplay:10.37,2013-01-20 10:18:00,
2013-01-20 05:23:00,44.1,34.2,28.75,WNW,292,13.8,13.8,68,0.00,CLR,SKC,0.00,WeatherDisplay:10.37,2013-01-20 10:23:00,
2013-01-20 05:28:00,44.1,34.2,28.75,NW,315,8.1,8.1,68,0.00,CLR,SKC,0.00,WeatherDisplay:10.37,2013-01-20 10:28:00,
2013-01-20 05:33:00,44.1,34.2,28.75,West,270,15.0,15.0,68,0.00,CLR,SKC,0.00,WeatherDisplay:10.37,2013-01-20 10:33:00,
2013-01-20 05:38:00,44.2,34.3,28.75,West,270,10.7,10.7,68,0.00,CLR,SKC,0.00,WeatherDisplay:10.37,2013-01-20 10:38:00,
2013-01-20 05:43:00,44.2,34.7,28.75,West,270,10.4,10.4,69,0.00,CLR,SKC,0.00,WeatherDisplay:10.37,2013-01-20 10:43:00,
2013-01-20 05:48:00,44.2,34.3,28.75,North,3,16.1,16.1,68,0.00,CLR,SKC,0.00,WeatherDisplay:10.37,2013-01-20 10:48:00,
2013-01-20 05:53:00,44.4,34.5,28.76,South,180,12.7,12.7,68,0.00,CLR,SKC,0.00,WeatherDisplay:10.37,2013-01-20 10:53:00,
2013-01-20 05:58:00,44.6,34.7,28.75,West,270,21.9,21.9,68,0.00,CLR,SKC,0.00,WeatherDisplay:10.37,2013-01-20 10:58:00,
2013-01-20 06:03:00,44.6,34.7,28.75,NW,315,10.4,10.4,68,0.00,CLR,SKC,0.00,WeatherDisplay:10.37,2013-01-20 11:03:00,
2013-01-20 06:08:00,45.0,35.0,28.75,NE,45,15.0,15.0,68,0.00,CLR,SKC,0.00,WeatherDisplay:10.37,2013-01-20 11:08:00,
2013-01-20 06:13:00,44.2,34.7,28.76,West,270,13.8,13.8,69,0.00,CLR,SKC,0.00,WeatherDisplay:10.37,2013-01-20 11:13:00,
2013-01-20 06:18:00,44.2,34.7,28.75,West,270,19.6,19.6,69,0.00,CLR,SKC,0.00,WeatherDisplay:10.37,2013-01-20 11:18:00,
2013-01-20 06:23:00,44.2,34.7,28.76,North,8,12.7,12.7,69,0.00,CLR,SKC,0.00,WeatherDisplay:10.37,2013-01-20 11:23:00,
2013-01-20 06:28:00,44.2,34.7,28.76,NNE,14,15.0,15.0,69,0.00,CLR,SKC,0.00,WeatherDisplay:10.37,2013-01-20 11:28:00,
2013-01-20 06:33:00,44.2,34.7,28.76,North,2,19.6,19.6,69,0.00,CLR,SKC,0.00,WeatherDisplay:10.37,2013-01-20 11:33:00,
2013-01-20 06:38:00,44.2,34.7,28.76,North,1,20.7,20.7,69,0.00,CLR,SKC,0.00,WeatherDisplay:10.37,2013-01-20 11:38:00,
2013-01-20 06:43:00,44.1,34.5,28.76,East,90,11.5,11.5,69,0.00,CLR,SKC,0.00,WeatherDisplay:10.37,2013-01-20 11:43:00,
2013-01-20 06:48:00,44.1,34.5,28.76,West,270,19.6,19.6,69,0.00,CLR,SKC,0.00,WeatherDisplay:10.37,2013-01-20 11:48:00,
2013-01-20 06:53:00,44.1,34.5,28.76,South,180,23.0,23.0,69,0.00,CLR,SKC,0.00,WeatherDisplay:10.37,2013-01-20 11:53:00,
2013-01-20 06:58:00,44.1,34.9,28.77,East,90,10.4,10.4,70,0.00,CLR,SKC,0.00,WeatherDisplay:10.37,2013-01-20 11:58:00,
2013-01-20 07:03:00,43.9,34.7,28.77,West,270,27.6,27.6,70,0.00,CLR,SKC,0.00,WeatherDisplay:10.37,2013-01-20 12:03:00,
2013-01-20 07:08:00,43.9,34.7,28.78,West,270,27.6,27.6,70,0.00,CLR,SKC,0.00,WeatherDisplay:10.37,2013-01-20 12:08:00,
2013-01-20 07:13:00,43.9,34.7,28.78,SE,135,20.7,20.7,70,0.00,CLR,SKC,0.00,WeatherDisplay:10.37,2013-01-20 12:13:00,
2013-01-20 07:18:00,43.9,34.7,28.78,North,8,19.6,19.6,70,0.00,CLR,SKC,0.00,WeatherDisplay:10.37,2013-01-20 12:18:00,
2013-01-20 07:23:00,43.7,34.6,28.78,North,0,24.2,24.2,70,0.00,CLR,SKC,0.00,WeatherDisplay:10.37,2013-01-20 12:23:00,
2013-01-20 07:28:00,43.5,34.0,28.78,West,270,25.3,25.3,69,0.00,CLR,SKC,0.00,WeatherDisplay:10.37,2013-01-20 12:28:00,
2013-01-20 07:33:00,43.5,32.9,28.78,East,90,17.3,17.3,66,0.00,CLR,SKC,0.00,WeatherDisplay:10.37,2013-01-20 12:33:00,
2013-01-20 07:38:00,43.3,32.7,28.79,NNE,15,12.7,12.7,66,0.00,CLR,SKC,0.00,WeatherDisplay:10.37,2013-01-20 12:38:00,
2013-01-20 07:43:00,43.2,32.6,28.79,North,0,19.6,19.6,66,0.00,CLR,SKC,0.00,WeatherDisplay:10.37,2013-01-20 12:43:00,
2013-01-20 07:48:00,43.2,32.2,28.79,SE,135,15.0,15.0,65,0.00,CLR,SKC,0.00,WeatherDisplay:10.37,2013-01-20 12:48:00,
2013-01-20 07:53:00,43.0,31.2,28.80,NW,315,19.6,19.6,63,0.00,CLR,SKC,0.00,WeatherDisplay:10.37,2013-01-20 12:53:00,
2013-01-20 07:58:00,42.8,31.1,28.80,West,270,17.3,17.3,63,0.00,CLR,SKC,0.00,WeatherDisplay:10.37,2013-01-20 12:58:00,
2013-01-20 08:03:00,42.8,31.1,28.81,North,0,6.9,6.9,63,0.00,CLR,SKC,0.00,WeatherDisplay:10.37,2013-01-20 13:03:00,
2013-01-20 08:08:00,42.6,30.5,28.81,North,0,10.4,10.4,62,0.00,CLR,SKC,0.00,WeatherDisplay:10.37,2013-01-20 13:08:00,
2013-01-20 08:13:00,42.4,30.7,28.82,North,6,8.1,8.1,63,0.00,CLR,SKC,0.00,WeatherDisplay:10.37,2013-01-20 13:13:00,
2013-01-20 08:18:00,42.1,28.4,28.82,West,270,28.8,28.8,58,0.00,CLR,SKC,0.00,WeatherDisplay:10.37,2013-01-20 13:18:00,
2013-01-20 08:23:00,41.7,28.0,28.83,NW,315,15.0,15.0,58,0.00,CLR,SKC,0.00,WeatherDisplay:10.37,2013-01-20 13:23:00,
2013-01-20 08:29:00,41.2,27.1,28.84,NW,315,18.4,18.4,57,0.00,CLR,SKC,0.00,WeatherDisplay:10.37,2013-01-20 13:29:00,
2013-01-20 08:34:00,41.0,26.5,28.84,NNE,15,25.3,25.3,56,0.00,CLR,SKC,0.00,WeatherDisplay:10.37,2013-01-20 13:34:00,
2013-01-20 08:39:00,40.6,26.6,28.84,NNE,12,24.2,24.2,57,0.00,CLR,SKC,0.00,WeatherDisplay:10.37,2013-01-20 13:39:00,
2013-01-20 08:44:00,40.3,26.7,28.84,NNE,14,19.6,19.6,58,0.00,CLR,SKC,0.00,WeatherDisplay:10.37,2013-01-20 13:44:00,
2013-01-20 08:49:00,40.1,26.9,28.85,North,4,17.3,17.3,59,0.00,CLR,SKC,0.00,WeatherDisplay:10.37,2013-01-20 13:49:00,
2013-01-20 08:54:00,39.9,26.7,28.85,North,0,18.4,18.4,59,0.00,CLR,SKC,0.00,WeatherDisplay:10.37,2013-01-20 13:54:00,
2013-01-20 08:59:00,40.1,26.9,28.86,NW,315,16.8,16.8,59,0.00,CLR,SKC,0.00,WeatherDisplay:10.37,2013-01-20 13:59:00,
2013-01-20 09:04:00,40.1,26.9,28.86,NW,315,17.3,17.3,59,0.00,CLR,SKC,0.00,WeatherDisplay:10.37,2013-01-20 14:04:00,
2013-01-20 09:09:00,39.4,26.2,28.87,NNE,14,15.0,15.0,59,0.00,CLR,SKC,0.00,WeatherDisplay:10.37,2013-01-20 14:09:00,
2013-01-20 09:14:00,39.4,26.2,28.87,North,0,20.7,20.7,59,0.00,CLR,SKC,0.00,WeatherDisplay:10.37,2013-01-20 14:14:00,
2013-01-20 09:19:00,39.2,25.6,28.87,NW,315,12.7,12.7,58,0.00,CLR,SKC,0.00,WeatherDisplay:10.37,2013-01-20 14:19:00,
2013-01-20 09:25:00,39.2,25.6,28.88,NNE,14,18.4,18.4,58,0.00,CLR,SKC,0.00,WeatherDisplay:10.37,2013-01-20 14:25:00,
2013-01-20 09:30:00,39.0,25.9,28.88,NW,315,12.7,12.7,59,0.00,CLR,SKC,0.00,WeatherDisplay:10.37,2013-01-20 14:30:00,
2013-01-20 09:35:00,38.7,25.6,28.88,NW,315,15.0,15.0,59,0.00,CLR,SKC,0.00,WeatherDisplay:10.37,2013-01-20 14:35:00,
2013-01-20 09:41:00,38.3,25.2,28.89,NW,315,15.0,15.0,59,0.00,CLR,SKC,0.00,WeatherDisplay:10.37,2013-01-20 14:41:00,
2013-01-20 09:46:00,37.8,25.1,28.89,NW,315,19.6,19.6,60,0.00,CLR,SKC,0.00,WeatherDisplay:10.37,2013-01-20 14:46:00,
2013-01-20 09:51:00,37.8,25.1,28.89,West,270,11.5,11.5,60,0.00,CLR,SKC,0.00,WeatherDisplay:10.37,2013-01-20 14:51:00,
2013-01-20 09:56:00,37.8,24.7,28.90,NNE,16,17.3,17.3,59,0.00,CLR,SKC,0.00,WeatherDisplay:10.37,2013-01-20 14:56:00,
2013-01-20 10:01:00,37.8,24.7,28.90,North,0,16.1,16.1,59,0.00,CLR,SKC,0.00,WeatherDisplay:10.37,2013-01-20 15:01:00,
2013-01-20 10:06:00,37.8,24.7,28.90,North,0,15.0,15.0,59,0.00,CLR,SKC,0.00,WeatherDisplay:10.37,2013-01-20 15:06:00,
2013-01-20 10:11:00,39.0,25.9,28.90,NNE,14,10.4,10.4,59,0.00,CLR,SKC,0.00,WeatherDisplay:10.37,2013-01-20 15:11:00,
2013-01-20 10:16:00,39.0,25.5,28.91,North,0,16.1,16.1,58,0.00,CLR,SKC,0.00,WeatherDisplay:10.37,2013-01-20 15:16:00,
2013-01-20 10:21:00,38.8,24.9,28.91,North,0,17.3,17.3,57,0.00,CLR,SKC,0.00,WeatherDisplay:10.37,2013-01-20 15:21:00,
2013-01-20 10:26:00,39.4,25.8,28.91,West,270,10.4,10.4,58,0.00,CLR,SKC,0.00,WeatherDisplay:10.37,2013-01-20 15:26:00,
2013-01-20 10:31:00,39.2,25.6,28.91,West,270,17.3,17.3,58,0.00,CLR,SKC,0.00,WeatherDisplay:10.37,2013-01-20 15:31:00,
2013-01-20 10:36:00,38.7,24.7,28.91,SE,135,17.3,17.3,57,0.00,CLR,SKC,0.00,WeatherDisplay:10.37,2013-01-20 15:36:00,
2013-01-20 10:41:00,38.8,24.9,28.92,NW,315,17.3,17.3,57,0.00,CLR,SKC,0.00,WeatherDisplay:10.37,2013-01-20 15:41:00,
2013-01-20 10:46:00,38.7,24.3,28.92,NNE,14,19.6,19.6,56,0.00,CLR,SKC,0.00,WeatherDisplay:10.37,2013-01-20 15:46:00,
2013-01-20 10:51:00,38.5,23.7,28.92,NNE,16,19.6,19.6,55,0.00,CLR,SKC,0.00,WeatherDisplay:10.37,2013-01-20 15:51:00,
2013-01-20 10:56:00,39.0,24.6,28.92,West,270,16.1,16.1,56,0.00,CLR,SKC,0.00,WeatherDisplay:10.37,2013-01-20 15:56:00,
2013-01-20 11:01:00,38.7,23.0,28.92,West,270,23.0,23.0,53,0.00,CLR,SKC,0.00,WeatherDisplay:10.37,2013-01-20 16:01:00,
2013-01-20 11:06:00,39.4,23.7,28.93,North,8,12.7,12.7,53,0.00,CLR,SKC,0.00,WeatherDisplay:10.37,2013-01-20 16:06:00,
2013-01-20 11:11:00,39.2,24.4,28.93,NW,315,16.1,16.1,55,0.00,CLR,SKC,0.00,WeatherDisplay:10.37,2013-01-20 16:11:00,
2013-01-20 11:16:00,37.8,23.9,28.93,NNE,14,23.0,23.0,57,0.00,CLR,SKC,0.00,WeatherDisplay:10.37,2013-01-20 16:16:00,
2013-01-20 11:21:00,37.4,24.0,28.93,West,270,23.0,23.0,58,0.00,CLR,SKC,0.00,WeatherDisplay:10.37,2013-01-20 16:21:00,
2013-01-20 11:26:00,37.2,24.2,28.94,NNE,15,20.7,20.7,59,0.00,CLR,SKC,0.00,WeatherDisplay:10.37,2013-01-20 16:26:00,
2013-01-20 11:31:00,36.7,23.7,28.93,West,270,21.9,21.9,59,0.00,CLR,SKC,0.00,WeatherDisplay:10.37,2013-01-20 16:31:00,
2013-01-20 11:36:00,36.5,23.5,28.94,West,270,25.3,25.3,59,0.00,CLR,SKC,0.00,WeatherDisplay:10.37,2013-01-20 16:36:00,
2013-01-20 11:41:00,37.0,23.6,28.94,NNE,12,19.6,19.6,58,0.00,CLR,SKC,0.00,WeatherDisplay:10.37,2013-01-20 16:41:00,
2013-01-20 11:46:00,37.8,24.3,28.94,West,270,13.8,13.8,58,0.00,CLR,SKC,0.00,WeatherDisplay:10.37,2013-01-20 16:46:00,
2013-01-20 11:51:00,36.7,22.0,28.94,West,270,28.8,28.8,55,0.00,CLR,SKC,0.00,WeatherDisplay:10.37,2013-01-20 16:51:00,
2013-01-20 11:56:00,36.9,21.7,28.94,West,270,16.1,16.1,54,0.00,CLR,SKC,0.00,WeatherDisplay:10.37,2013-01-20 16:56:00,
2013-01-20 12:01:00,36.3,20.8,28.94,North,1,24.2,24.2,53,0.00,CLR,SKC,0.00,WeatherDisplay:10.37,2013-01-20 17:01:00,
2013-01-20 12:06:00,36.7,21.1,28.94,West,270,18.4,18.4,53,0.00,CLR,SKC,0.00,WeatherDisplay:10.37,2013-01-20 17:06:00,
2013-01-20 12:11:00,36.1,20.6,28.94,West,270,28.8,28.8,53,0.00,CLR,SKC,0.00,WeatherDisplay:10.37,2013-01-20 17:11:00,
2013-01-20 12:16:00,36.0,20.5,28.94,NNE,14,21.9,21.9,53,0.00,CLR,SKC,0.00,WeatherDisplay:10.37,2013-01-20 17:16:00,
2013-01-20 12:21:00,36.5,21.0,28.94,West,270,12.7,12.7,53,0.00,CLR,SKC,0.00,WeatherDisplay:10.37,2013-01-20 17:21:00,
2013-01-20 12:26:00,36.0,20.5,28.95,NNE,13,23.0,23.0,53,0.00,CLR,SKC,0.00,WeatherDisplay:10.37,2013-01-20 17:26:00,
2013-01-20 12:31:00,35.6,20.1,28.94,North,0,24.2,24.2,53,0.00,CLR,SKC,0.00,WeatherDisplay:10.37,2013-01-20 17:31:00,
2013-01-20 12:36:00,35.8,20.7,28.95,NNE,14,19.6,19.6,54,0.00,CLR,SKC,0.00,WeatherDisplay:10.37,2013-01-20 17:36:00,
2013-01-20 12:41:00,35.4,20.4,28.94,West,270,18.4,18.4,54,0.00,CLR,SKC,0.00,WeatherDisplay:10.37,2013-01-20 17:41:00,
2013-01-20 12:46:00,35.4,20.4,28.94,NNE,12,15.0,15.0,54,0.00,CLR,SKC,0.00,WeatherDisplay:10.37,2013-01-20 17:46:00,
2013-01-20 12:51:00,35.6,21.0,28.94,North,0,15.0,15.0,55,0.00,CLR,SKC,0.00,WeatherDisplay:10.37,2013-01-20 17:51:00,
2013-01-20 12:56:00,35.6,20.6,28.94,West,270,18.4,18.4,54,0.00,CLR,SKC,0.00,WeatherDisplay:10.37,2013-01-20 17:56:00,
2013-01-20 13:01:00,35.6,20.6,28.95,NNE,15,15.0,15.0,54,0.00,CLR,SKC,0.00,WeatherDisplay:10.37,2013-01-20 18:01:00,
2013-01-20 13:06:00,35.2,19.8,28.94,North,0,17.3,17.3,53,0.00,CLR,SKC,0.00,WeatherDisplay:10.37,2013-01-20 18:06:00,
2013-01-20 13:11:00,36.3,20.8,28.94,North,10,9.2,9.2,53,0.00,CLR,SKC,0.00,WeatherDisplay:10.37,2013-01-20 18:11:00,
2013-01-20 13:16:00,36.1,20.2,28.95,NNE,16,12.7,12.7,52,0.00,CLR,SKC,0.00,WeatherDisplay:10.37,2013-01-20 18:16:00,
2013-01-20 13:21:00,35.8,19.9,28.94,NW,315,15.0,15.0,52,0.00,CLR,SKC,0.00,WeatherDisplay:10.37,2013-01-20 18:21:00,
2013-01-20 13:26:00,35.2,20.2,28.95,West,270,17.3,17.3,54,0.00,CLR,SKC,0.00,WeatherDisplay:10.37,2013-01-20 18:26:00,
2013-01-20 13:31:00,34.7,20.6,28.95,West,270,17.3,17.3,56,0.00,CLR,SKC,0.00,WeatherDisplay:10.37,2013-01-20 18:31:00,
2013-01-20 13:36:00,35.2,21.1,28.95,North,1,18.4,18.4,56,0.00,CLR,SKC,0.00,WeatherDisplay:10.37,2013-01-20 18:36:00,
2013-01-20 13:41:00,34.7,21.0,28.95,NW,315,18.4,18.4,57,0.00,CLR,SKC,0.00,WeatherDisplay:10.37,2013-01-20 18:41:00,
2013-01-20 13:46:00,34.3,20.7,28.96,NW,315,24.2,24.2,57,0.00,CLR,SKC,0.00,WeatherDisplay:10.37,2013-01-20 18:46:00,
2013-01-20 13:51:00,34.5,20.0,28.96,North,0,20.7,20.7,55,0.00,CLR,SKC,0.00,WeatherDisplay:10.37,2013-01-20 18:51:00,
2013-01-20 13:56:00,33.8,19.3,28.96,West,270,18.4,18.4,55,0.00,CLR,SKC,0.00,WeatherDisplay:10.37,2013-01-20 18:56:00,
2013-01-20 14:01:00,34.0,19.9,28.97,NW,315,15.0,15.0,56,0.00,CLR,SKC,0.00,WeatherDisplay:10.37,2013-01-20 19:01:00,
2013-01-20 14:06:00,34.0,19.1,28.97,West,270,15.0,15.0,54,0.00,CLR,SKC,0.00,WeatherDisplay:10.37,2013-01-20 19:06:00,
2013-01-20 14:11:00,33.6,19.2,28.97,West,270,19.6,19.6,55,0.00,CLR,SKC,0.00,WeatherDisplay:10.37,2013-01-20 19:11:00,
2013-01-20 14:16:00,33.8,18.0,28.97,North,1,19.6,19.6,52,0.00,CLR,SKC,0.00,WeatherDisplay:10.37,2013-01-20 19:16:00,
2013-01-20 14:21:00,34.2,19.2,28.98,West,270,11.5,11.5,54,0.00,CLR,SKC,0.00,WeatherDisplay:10.37,2013-01-20 19:21:00,
2013-01-20 14:26:00,33.8,19.3,28.98,NNE,13,11.5,11.5,55,0.00,CLR,SKC,0.00,WeatherDisplay:10.37,2013-01-20 19:26:00,
2013-01-20 14:31:00,33.4,19.0,28.98,West,270,12.7,12.7,55,0.00,CLR,SKC,0.00,WeatherDisplay:10.37,2013-01-20 19:31:00,
2013-01-20 14:36:00,33.3,18.8,28.98,NNE,13,10.4,10.4,55,0.00,CLR,SKC,0.00,WeatherDisplay:10.37,2013-01-20 19:36:00,
2013-01-20 14:41:00,33.1,18.2,28.98,West,270,17.3,17.3,54,0.00,CLR,SKC,0.00,WeatherDisplay:10.37,2013-01-20 19:41:00,
2013-01-20 14:46:00,33.1,17.8,28.98,NW,315,15.0,15.0,53,0.00,CLR,SKC,0.00,WeatherDisplay:10.37,2013-01-20 19:46:00,
2013-01-20 14:51:00,32.9,17.6,28.98,West,270,17.3,17.3,53,0.00,CLR,SKC,0.00,WeatherDisplay:10.37,2013-01-20 19:51:00,
2013-01-20 14:56:00,32.7,17.9,28.98,NW,315,17.3,17.3,54,0.00,CLR,SKC,0.00,WeatherDisplay:10.37,2013-01-20 19:56:00,
2013-01-20 15:01:00,32.9,18.1,28.99,NW,315,12.7,12.7,54,0.00,CLR,SKC,0.00,WeatherDisplay:10.37,2013-01-20 20:01:00,
2013-01-20 15:06:00,32.5,18.6,28.98,NW,315,10.4,10.4,56,0.00,CLR,SKC,0.00,WeatherDisplay:10.37,2013-01-20 20:06:00,
2013-01-20 15:11:00,32.0,18.5,28.99,NNE,16,19.6,19.6,57,0.00,CLR,SKC,0.00,WeatherDisplay:10.37,2013-01-20 20:11:00,
2013-01-20 15:16:00,31.8,17.9,28.99,West,270,16.1,16.1,56,0.00,CLR,SKC,0.00,WeatherDisplay:10.37,2013-01-20 20:16:00,
2013-01-20 15:21:00,31.8,18.3,28.99,NW,315,13.8,13.8,57,0.00,CLR,SKC,0.00,WeatherDisplay:10.37,2013-01-20 20:21:00,
2013-01-20 15:26:00,31.5,18.0,28.99,NW,315,17.3,17.3,57,0.00,CLR,SKC,0.00,WeatherDisplay:10.37,2013-01-20 20:26:00,
2013-01-20 15:31:00,31.5,18.4,28.99,NNE,15,15.0,15.0,58,0.00,CLR,SKC,0.00,WeatherDisplay:10.37,2013-01-20 20:31:00,
2013-01-20 15:36:00,31.3,18.2,28.99,North,0,12.7,12.7,58,0.00,CLR,SKC,0.00,WeatherDisplay:10.37,2013-01-20 20:36:00,
2013-01-20 15:41:00,31.3,18.2,29.00,NNE,14,10.4,10.4,58,0.00,CLR,SKC,0.00,WeatherDisplay:10.37,2013-01-20 20:41:00,
2013-01-20 15:46:00,31.5,18.0,29.00,North,0,15.0,15.0,57,0.00,CLR,SKC,0.00,WeatherDisplay:10.37,2013-01-20 20:46:00,
2013-01-20 15:51:00,31.1,18.0,29.00,West,270,17.3,17.3,58,0.00,CLR,SKC,0.00,WeatherDisplay:10.37,2013-01-20 20:51:00,
2013-01-20 15:56:00,30.9,18.3,29.00,NW,315,15.0,15.0,59,0.00,CLR,SKC,0.00,WeatherDisplay:10.37,2013-01-20 20:56:00,
2013-01-20 16:01:00,30.9,18.7,29.00,NNE,16,9.2,9.2,60,0.00,CLR,SKC,0.00,WeatherDisplay:10.37,2013-01-20 21:01:00,
2013-01-20 16:06:00,30.9,18.3,29.00,North,0,6.9,6.9,59,0.00,CLR,SKC,0.00,WeatherDisplay:10.37,2013-01-20 21:06:00,
2013-01-20 16:11:00,30.2,17.6,29.00,North,0,13.8,13.8,59,0.00,CLR,SKC,0.00,WeatherDisplay:10.37,2013-01-20 21:11:00,
2013-01-20 16:17:00,29.8,16.8,28.99,North,1,15.0,15.0,58,0.00,CLR,SKC,0.00,WeatherDisplay:10.37,2013-01-20 21:17:00,
2013-01-20 16:22:00,29.7,17.1,28.99,North,0,11.5,11.5,59,0.00,CLR,SKC,0.00,WeatherDisplay:10.37,2013-01-20 21:22:00,
2013-01-20 16:27:00,29.5,16.9,28.99,NW,315,10.4,10.4,59,0.00,CLR,SKC,0.00,WeatherDisplay:10.37,2013-01-20 21:27:00,
2013-01-20 16:33:00,29.3,16.7,28.99,NW,315,9.2,9.2,59,0.00,CLR,SKC,0.00,WeatherDisplay:10.37,2013-01-20 21:33:00,
2013-01-20 16:38:00,29.1,16.6,29.00,NW,315,11.5,11.5,59,0.00,CLR,SKC,0.00,WeatherDisplay:10.37,2013-01-20 21:38:00,
2013-01-20 16:43:00,29.1,16.6,29.00,NNE,13,12.7,12.7,59,0.00,CLR,SKC,0.00,WeatherDisplay:10.37,2013-01-20 21:43:00,
2013-01-20 16:48:00,29.1,16.6,29.01,NNE,14,8.1,8.1,59,0.00,CLR,SKC,0.00,WeatherDisplay:10.37,2013-01-20 21:48:00,
2013-01-20 16:53:00,29.1,16.6,29.00,NW,315,12.7,12.7,59,0.00,CLR,SKC,0.00,WeatherDisplay:10.37,2013-01-20 21:53:00,
2013-01-20 16:58:00,29.3,16.7,29.01,North,1,10.4,10.4,59,0.00,CLR,SKC,0.00,WeatherDisplay:10.37,2013-01-20 21:58:00,
2013-01-20 17:03:00,29.1,17.0,29.00,NW,315,10.4,10.4,60,0.00,CLR,SKC,0.00,WeatherDisplay:10.37,2013-01-20 22:03:00,
2013-01-20 17:08:00,28.6,16.8,29.01,NW,315,10.4,10.4,61,0.00,CLR,SKC,0.00,WeatherDisplay:10.37,2013-01-20 22:08:00,
2013-01-20 17:13:00,28.4,16.7,29.01,NW,315,10.4,10.4,61,0.00,CLR,SKC,0.00,WeatherDisplay:10.37,2013-01-20 22:13:00,
2013-01-20 17:18:00,28.2,16.5,29.01,NW,315,10.4,10.4,61,0.00,CLR,SKC,0.00,WeatherDisplay:10.37,2013-01-20 22:18:00,
2013-01-20 17:23:00,28.2,16.5,29.01,NW,315,16.1,16.1,61,0.00,CLR,SKC,0.00,WeatherDisplay:10.37,2013-01-20 22:23:00,
2013-01-20 17:28:00,28.0,16.3,29.01,West,270,11.5,11.5,61,0.00,CLR,SKC,0.00,WeatherDisplay:10.37,2013-01-20 22:28:00,
2013-01-20 17:33:00,27.9,16.5,29.02,NNE,13,11.5,11.5,62,0.00,CLR,SKC,0.00,WeatherDisplay:10.37,2013-01-20 22:33:00,
2013-01-20 17:38:00,27.9,16.5,29.02,NW,315,9.2,9.2,62,0.00,CLR,SKC,0.00,WeatherDisplay:10.37,2013-01-20 22:38:00,
2013-01-20 17:43:00,27.7,16.7,29.02,North,1,5.8,5.8,63,0.00,CLR,SKC,0.00,WeatherDisplay:10.37,2013-01-20 22:43:00,
2013-01-20 17:48:00,27.5,16.5,29.03,NNE,15,5.8,5.8,63,0.00,CLR,SKC,0.00,WeatherDisplay:10.37,2013-01-20 22:48:00,
2013-01-20 17:53:00,27.3,16.4,29.02,NW,315,8.1,8.1,63,0.00,CLR,SKC,0.00,WeatherDisplay:10.37,2013-01-20 22:53:00,
2013-01-20 17:58:00,27.3,16.7,29.03,NW,315,6.9,6.9,64,0.00,CLR,SKC,0.00,WeatherDisplay:10.37,2013-01-20 22:58:00,
2013-01-20 18:03:00,27.3,16.7,29.04,NW,315,10.4,10.4,64,0.00,CLR,SKC,0.00,WeatherDisplay:10.37,2013-01-20 23:03:00,
2013-01-20 18:09:00,27.1,16.6,29.04,NW,315,10.4,10.4,64,0.00,CLR,SKC,0.00,WeatherDisplay:10.37,2013-01-20 23:09:00,
2013-01-20 18:14:00,27.0,16.4,29.04,NW,315,10.4,10.4,64,0.00,CLR,SKC,0.00,WeatherDisplay:10.37,2013-01-20 23:14:00,
2013-01-20 18:19:00,27.0,16.8,29.04,NW,315,10.4,10.4,65,0.00,CLR,SKC,0.00,WeatherDisplay:10.37,2013-01-20 23:19:00,
2013-01-20 18:24:00,26.8,16.6,29.04,North,1,8.1,8.1,65,0.00,CLR,SKC,0.00,WeatherDisplay:10.37,2013-01-20 23:24:00,
2013-01-20 18:29:00,26.8,16.6,29.04,NNE,14,10.4,10.4,65,0.00,CLR,SKC,0.00,WeatherDisplay:10.37,2013-01-20 23:29:00,
2013-01-20 18:34:00,26.6,16.8,29.04,NNE,14,6.0,6.0,66,0.00,CLR,SKC,0.00,WeatherDisplay:10.37,2013-01-20 23:34:00,
2013-01-20 18:39:00,26.2,16.4,29.04,West,270,4.6,4.6,66,0.00,CLR,SKC,0.00,WeatherDisplay:10.37,2013-01-20 23:39:00,
2013-01-20 18:44:00,26.2,16.8,29.04,NW,315,9.2,9.2,67,0.00,CLR,SKC,0.00,WeatherDisplay:10.37,2013-01-20 23:44:00,
2013-01-20 18:49:00,26.2,16.8,29.05,NNE,14,8.1,8.1,67,0.00,CLR,SKC,0.00,WeatherDisplay:10.37,2013-01-20 23:49:00,
2013-01-20 18:54:00,26.1,16.6,29.04,NNW,338,8.1,8.1,67,0.00,CLR,SKC,0.00,WeatherDisplay:10.37,2013-01-20 23:54:00,
2013-01-20 18:59:00,26.1,16.6,29.04,NW,315,6.9,6.9,67,0.00,CLR,SKC,0.00,WeatherDisplay:10.37,2013-01-20 23:59:00,
2013-01-20 19:04:00,26.1,16.6,29.05,NW,315,5.8,5.8,67,0.00,CLR,SKC,0.00,WeatherDisplay:10.37,2013-01-21 00:04:00,
2013-01-20 19:09:00,25.5,16.4,29.04,NW,315,6.9,6.9,68,0.00,CLR,SKC,0.00,WeatherDisplay:10.37,2013-01-21 00:09:00,
2013-01-20 19:14:00,25.5,16.4,29.04,NNE,14,5.8,5.8,68,0.00,CLR,SKC,0.00,WeatherDisplay:10.37,2013-01-21 00:14:00,
2013-01-20 19:19:00,25.3,16.2,29.04,North,0,3.5,3.5,68,0.00,CLR,SKC,0.00,WeatherDisplay:10.37,2013-01-21 00:19:00,
2013-01-20 19:24:00,25.2,16.1,29.04,NW,315,5.8,5.8,68,0.00,CLR,SKC,0.00,WeatherDisplay:10.37,2013-01-21 00:24:00,
2013-01-20 19:29:00,25.2,16.1,29.04,NW,315,6.9,6.9,68,0.00,CLR,SKC,0.00,WeatherDisplay:10.37,2013-01-21 00:29:00,
2013-01-20 19:34:00,25.0,16.2,29.04,NW,315,3.5,3.5,69,0.00,CLR,SKC,0.00,WeatherDisplay:10.37,2013-01-21 00:34:00,
2013-01-20 19:39:00,24.8,16.1,29.04,West,270,4.6,4.6,69,0.00,CLR,SKC,0.00,WeatherDisplay:10.37,2013-01-21 00:39:00,
2013-01-20 19:44:00,25.0,16.2,29.05,NW,315,6.9,6.9,69,0.00,CLR,SKC,0.00,WeatherDisplay:10.37,2013-01-21 00:44:00,
2013-01-20 19:49:00,24.8,16.1,29.05,NW,315,3.5,3.8,69,0.00,CLR,SKC,0.00,WeatherDisplay:10.37,2013-01-21 00:49:00,
2013-01-20 19:54:00,24.8,16.1,29.05,West,270,5.8,5.8,69,0.00,CLR,SKC,0.00,WeatherDisplay:10.37,2013-01-21 00:54:00,
2013-01-20 19:59:00,24.8,16.1,29.06,NNE,16,6.9,6.9,69,0.00,CLR,SKC,0.00,WeatherDisplay:10.37,2013-01-21 00:59:00,
2013-01-20 20:04:00,24.8,16.1,29.06,NW,315,5.8,5.8,69,0.00,CLR,SKC,0.00,WeatherDisplay:10.37,2013-01-21 01:04:00,
2013-01-20 20:09:00,24.4,16.1,29.06,NW,315,5.8,5.8,70,0.00,CLR,SKC,0.00,WeatherDisplay:10.37,2013-01-21 01:09:00,
2013-01-20 20:14:00,24.4,16.1,29.06,NW,315,5.8,5.8,70,0.00,CLR,SKC,0.00,WeatherDisplay:10.37,2013-01-21 01:14:00,
2013-01-20 20:19:00,24.4,16.1,29.06,NW,315,4.6,4.6,70,0.00,CLR,SKC,0.00,WeatherDisplay:10.37,2013-01-21 01:19:00,
2013-01-20 20:24:00,24.3,16.2,29.06,NW,315,5.8,5.8,71,0.00,CLR,SKC,0.00,WeatherDisplay:10.37,2013-01-21 01:24:00,
2013-01-20 20:29:00,24.3,15.9,29.06,NW,315,6.9,6.9,70,0.00,CLR,SKC,0.00,WeatherDisplay:10.37,2013-01-21 01:29:00,
2013-01-20 20:34:00,24.3,16.2,29.06,NNE,14,5.8,5.8,71,0.00,CLR,SKC,0.00,WeatherDisplay:10.37,2013-01-21 01:34:00,
2013-01-20 20:39:00,24.1,16.0,29.06,NNE,14,9.2,9.2,71,0.00,CLR,SKC,0.00,WeatherDisplay:10.37,2013-01-21 01:39:00,
2013-01-20 20:44:00,24.3,16.2,29.06,NW,315,9.2,9.2,71,0.00,CLR,SKC,0.00,WeatherDisplay:10.37,2013-01-21 01:44:00,
2013-01-20 20:49:00,24.1,15.7,29.06,NW,315,8.1,8.1,70,0.00,CLR,SKC,0.00,WeatherDisplay:10.37,2013-01-21 01:49:00,
2013-01-20 20:54:00,24.1,15.7,29.06,NW,315,9.2,9.2,70,0.00,CLR,SKC,0.00,WeatherDisplay:10.37,2013-01-21 01:54:00,
2013-01-20 20:59:00,23.9,15.5,29.06,NNE,14,8.1,8.1,70,0.00,CLR,SKC,0.00,WeatherDisplay:10.37,2013-01-21 01:59:00,
2013-01-20 21:04:00,23.9,15.5,29.06,NNW,338,8.1,8.1,70,0.00,CLR,SKC,0.00,WeatherDisplay:10.37,2013-01-21 02:04:00,
2013-01-20 21:09:00,23.9,15.5,29.06,NNE,15,8.1,8.1,70,0.00,CLR,SKC,0.00,WeatherDisplay:10.37,2013-01-21 02:09:00,
2013-01-20 21:14:00,23.7,15.7,29.06,NNE,14,5.8,5.8,71,0.00,CLR,SKC,0.00,WeatherDisplay:10.37,2013-01-21 02:14:00,
2013-01-20 21:19:00,23.5,15.5,29.06,NW,315,5.8,5.8,71,0.00,CLR,SKC,0.00,WeatherDisplay:10.37,2013-01-21 02:19:00,
2013-01-20 21:24:00,23.5,15.5,29.06,NNE,14,5.8,5.8,71,0.00,CLR,SKC,0.00,WeatherDisplay:10.37,2013-01-21 02:24:00,
2013-01-20 21:29:00,23.5,15.5,29.06,NW,315,3.5,3.5,71,0.00,CLR,SKC,0.00,WeatherDisplay:10.37,2013-01-21 02:29:00,
2013-01-20 21:34:00,23.4,15.3,29.06,NW,315,10.4,10.4,71,0.00,CLR,SKC,0.00,WeatherDisplay:10.37,2013-01-21 02:34:00,
2013-01-20 21:39:00,23.4,15.3,29.06,NNE,14,10.4,10.4,71,0.00,CLR,SKC,0.00,WeatherDisplay:10.37,2013-01-21 02:39:00,
2013-01-20 21:44:00,23.5,15.5,29.06,NW,315,10.4,10.4,71,0.00,CLR,SKC,0.00,WeatherDisplay:10.37,2013-01-21 02:44:00,
2013-01-20 21:49:00,23.4,15.7,29.05,NW,315,6.9,6.9,72,0.00,CLR,SKC,0.00,WeatherDisplay:10.37,2013-01-21 02:49:00,
2013-01-20 21:54:00,23.2,15.5,29.05,NW,315,8.1,8.1,72,0.00,CLR,SKC,0.00,WeatherDisplay:10.37,2013-01-21 02:54:00,
2013-01-20 21:59:00,23.2,15.8,29.05,NW,315,8.1,8.1,73,0.00,CLR,SKC,0.00,WeatherDisplay:10.37,2013-01-21 02:59:00,
2013-01-20 22:04:00,23.2,15.5,29.05,NW,315,8.1,8.1,72,0.00,CLR,SKC,0.00,WeatherDisplay:10.37,2013-01-21 03:04:00,
2013-01-20 22:09:00,23.2,15.5,29.05,NW,315,6.9,6.9,72,0.00,CLR,SKC,0.00,WeatherDisplay:10.37,2013-01-21 03:09:00,
2013-01-20 22:14:00,23.2,15.8,29.05,NW,315,5.8,5.8,73,0.00,CLR,SKC,0.00,WeatherDisplay:10.37,2013-01-21 03:14:00,
2013-01-20 22:19:00,23.2,15.8,29.05,NW,315,3.5,3.5,73,0.00,CLR,SKC,0.00,WeatherDisplay:10.37,2013-01-21 03:19:00,
2013-01-20 22:24:00,23.2,15.8,29.05,NW,315,3.5,3.5,73,0.00,CLR,SKC,0.00,WeatherDisplay:10.37,2013-01-21 03:24:00,
2013-01-20 22:29:00,23.2,15.8,29.05,NW,315,4.6,4.6,73,0.00,CLR,SKC,0.00,WeatherDisplay:10.37,2013-01-21 03:29:00,
2013-01-20 22:34:00,23.2,16.1,29.05,NW,315,2.3,2.3,74,0.00,CLR,SKC,0.00,WeatherDisplay:10.37,2013-01-21 03:34:00,
2013-01-20 22:39:00,23.2,15.8,29.06,North,0,3.5,3.5,73,0.00,CLR,SKC,0.00,WeatherDisplay:10.37,2013-01-21 03:39:00,
2013-01-20 22:44:00,23.0,15.6,29.05,NW,315,3.5,0.0,73,0.00,CLR,SKC,0.00,WeatherDisplay:10.37,2013-01-21 03:44:00,
2013-01-20 22:49:00,23.0,15.9,29.05,NW,315,3.5,3.5,74,0.00,CLR,SKC,0.00,WeatherDisplay:10.37,2013-01-21 03:49:00,
2013-01-20 22:54:00,23.0,15.6,29.05,West,270,3.5,3.5,73,0.00,CLR,SKC,0.00,WeatherDisplay:10.37,2013-01-21 03:54:00,
2013-01-20 23:00:00,23.0,15.9,29.05,NW,315,3.5,3.5,74,0.00,CLR,SKC,0.00,WeatherDisplay:10.37,2013-01-21 04:00:00,
2013-01-20 23:05:00,23.0,15.9,29.04,NW,315,2.3,2.3,74,0.00,CLR,SKC,0.00,WeatherDisplay:10.37,2013-01-21 04:05:00,
2013-01-20 23:10:00,23.0,15.6,29.04,NW,315,3.5,3.5,73,0.00,CLR,SKC,0.00,WeatherDisplay:10.37,2013-01-21 04:10:00,
2013-01-20 23:15:00,23.0,15.9,29.04,NW,315,2.3,2.3,74,0.00,CLR,SKC,0.00,WeatherDisplay:10.37,2013-01-21 04:15:00,
2013-01-20 23:20:00,23.0,15.9,29.04,North,0,3.5,0.0,74,0.00,CLR,SKC,0.00,WeatherDisplay:10.37,2013-01-21 04:20:00,
2013-01-20 23:25:00,23.0,15.9,29.04,NW,315,4.6,4.6,74,0.00,CLR,SKC,0.00,WeatherDisplay:10.37,2013-01-21 04:25:00,
2013-01-20 23:30:00,23.0,15.9,29.04,NW,315,1.2,0.0,74,0.00,CLR,SKC,0.00,WeatherDisplay:10.37,2013-01-21 04:30:00,
2013-01-20 23:35:00,23.0,15.9,29.04,NNE,14,4.6,4.6,74,0.00,CLR,SKC,0.00,WeatherDisplay:10.37,2013-01-21 04:35:00,
2013-01-20 23:40:00,23.0,15.9,29.04,NW,315,3.5,3.5,74,0.00,CLR,SKC,0.00,WeatherDisplay:10.37,2013-01-21 04:40:00,
2013-01-20 23:45:00,23.0,15.9,29.04,NW,315,3.5,3.5,74,0.00,CLR,SKC,0.00,WeatherDisplay:10.37,2013-01-21 04:45:00,
2013-01-20 23:50:00,23.0,15.9,29.03,North,0,2.3,2.3,74,0.00,CLR,SKC,0.00,WeatherDisplay:10.37,2013-01-21 04:50:00,
2013-01-20 23:55:00,23.0,15.9,29.03,NNE,16,4.6,4.6,74,0.00,CLR,SKC,0.00,WeatherDisplay:10.37,2013-01-21 04:55:00,